THOR ABLESTAR DEB, 334

Orbit data source: Space-Track

THOR ABLESTAR DEB, 334 is space debris in LEO originally from a launch on Thu, 29 Jun 1961 UTC launched from the Air Force Eastern Test Range (AFETR). Debris objects in space refer to the collection of defunct objects orbiting the Earth. Examples of debris include non-operational satellites, rocket bodies, and fragments generated from explosions, collisions, or faulty payload assembly.

Loading next visibility...
Identifier
334, 1961-015DL
Orbit
LEO
Country
Flag of USUS
Related business
Manufacturer
Unknown
Mission
Spacecraft
Bus & Motor
Unknown
Mass
Unknown
Launch date (UTC)
1961-06-29 (64 years ago)
Launch vehicle
Unknown
Launch site
Air Force Eastern Test Range (AFETR)
Object type
Payload
Rocket body
Debris
Shape & HBR
Unknown shape, 0.1 m
Radar Cross Section
Small (<0.1 m²)

Expand to show TLE details & history
Last TLE update: 19 hours ago

TLE from 19 hours ago
0 THOR ABLESTAR DEB
1   334U 61015DL  25312.59316775  .00000085  00000-0  12328-3 0  9991
2   334  66.9257   0.7210 0085821 262.2540  96.8789 13.91699505265369
Epoch: 2025-11-08T14:14Z
TLE epoch observation values (Epoch: 2025-11-08T14:14:09.693Z)
Latitude
-0.00006°
Longitude
99.16003°
Altitude
932.802 km
Speed
7.382 km/s
True Right ascension
00h 02m 53s
True Declination
0° 00' 00"
Sunlit
Object was in full shadow at epoch
Visualization orbit readout
Latitude
Unknown
Longitude
Unknown
Altitude
Unknown
Speed
Unknown
Apparent Right ascension
Unknown
Apparent Declination
Unknown
Sunlit
N/A
Visualization observer readout
Local Sidereal Time
05:50:07
Azimuth
Unknown
Elevation
Unknown
Doppler factor
Unknown
Orbital elements
Apogee altitude
983.702 km
Perigee altitude
858.417 km
Semi-major axis
7,299.196 km
Eccentricity
0.00858
Inclination
66.9257°
RAAN
0.721°
Arg. of periapsis
262.254°
True anomaly
97.85396°
Mean anomaly
96.8789°
Eccentric anomaly
97.36656°
Mean motion
3.48041 °/min
Orbital period
103.44 mins
BSTAR
0.00012328
Loading maneuver chart data...
Computing Atmospheric mass density...

Documentation

Showing up to 5 results
|